TimeCST,TemperatureF,Dew PointF,Humidity,Sea Level PressureIn,VisibilityMPH,Wind Direction,Wind SpeedMPH,Gust SpeedMPH,PrecipitationIn,Events,Conditions,WindDirDegrees,DateUTC
12:14 AM,32.0,19.4,60,30.11,10.0,SSE,9.2,-,N/A,,Mostly Cloudy,160,2012-11-17 06:14:00
12:34 AM,32.0,21.2,64,30.11,10.0,SSE,11.5,-,N/A,,Scattered Clouds,160,2012-11-17 06:34:00
12:54 AM,32.0,21.2,64,30.10,10.0,SSE,6.9,-,N/A,,Clear,150,2012-11-17 06:54:00
1:14 AM,32.0,21.2,64,30.09,10.0,SE,5.8,-,N/A,,Clear,140,2012-11-17 07:14:00
1:34 AM,30.2,21.2,69,30.09,10.0,SSE,6.9,-,N/A,,Clear,150,2012-11-17 07:34:00
1:54 AM,30.2,21.2,69,30.09,10.0,SE,5.8,-,N/A,,Clear,140,2012-11-17 07:54:00
2:14 AM,30.2,21.2,69,30.08,10.0,SSE,8.1,-,N/A,,Clear,150,2012-11-17 08:14:00
2:34 AM,30.2,21.2,69,30.08,10.0,SSE,8.1,-,N/A,,Clear,160,2012-11-17 08:34:00
2:54 AM,30.2,21.2,69,30.08,10.0,SSE,6.9,-,N/A,,Clear,160,2012-11-17 08:54:00
3:14 AM,30.2,21.2,69,30.08,10.0,SSE,8.1,-,N/A,,Clear,160,2012-11-17 09:14:00
3:34 AM,30.2,23.0,75,30.07,10.0,SSE,8.1,-,N/A,,Clear,160,2012-11-17 09:34:00
3:54 AM,30.2,23.0,75,30.06,10.0,SSE,6.9,-,N/A,,Clear,160,2012-11-17 09:54:00
4:14 AM,28.4,23.0,80,30.06,10.0,South,4.6,-,N/A,,Clear,170,2012-11-17 10:14:00
4:34 AM,28.4,21.2,74,30.06,10.0,South,5.8,-,N/A,,Clear,170,2012-11-17 10:34:00
4:54 AM,28.4,23.0,80,30.06,10.0,SSE,8.1,-,N/A,,Clear,160,2012-11-17 10:54:00
5:14 AM,28.4,23.0,80,30.06,10.0,South,5.8,-,N/A,,Clear,170,2012-11-17 11:14:00
5:34 AM,28.4,23.0,80,30.06,10.0,South,8.1,-,N/A,,Clear,170,2012-11-17 11:34:00
5:54 AM,28.4,23.0,80,30.06,10.0,South,8.1,-,N/A,,Clear,170,2012-11-17 11:54:00
6:14 AM,30.2,24.8,80,30.05,10.0,South,6.9,-,N/A,,Clear,170,2012-11-17 12:14:00
6:34 AM,30.2,24.8,80,30.05,10.0,South,8.1,-,N/A,,Clear,170,2012-11-17 12:34:00
6:54 AM,30.2,24.8,80,30.05,10.0,South,5.8,-,N/A,,Clear,170,2012-11-17 12:54:00
7:14 AM,30.2,24.8,80,30.06,10.0,South,5.8,-,N/A,,Clear,170,2012-11-17 13:14:00
7:34 AM,30.2,24.8,80,30.06,10.0,South,5.8,-,N/A,,Clear,170,2012-11-17 13:34:00
7:54 AM,28.4,24.8,86,30.06,10.0,SSE,5.8,-,N/A,,Clear,160,2012-11-17 13:54:00
8:14 AM,28.4,24.8,86,30.07,10.0,SSE,5.8,-,N/A,,Clear,160,2012-11-17 14:14:00
8:34 AM,28.4,24.8,86,30.07,10.0,SSE,5.8,-,N/A,,Clear,160,2012-11-17 14:34:00
8:54 AM,30.2,24.8,80,30.08,10.0,SSE,3.5,-,N/A,,Clear,160,2012-11-17 14:54:00
9:14 AM,30.2,26.6,86,30.09,10.0,Calm,Calm,-,N/A,,Clear,0,2012-11-17 15:14:00
9:34 AM,33.8,28.4,81,30.09,10.0,SSE,4.6,-,N/A,,Clear,160,2012-11-17 15:34:00
9:54 AM,33.8,28.4,81,30.09,10.0,SSE,4.6,-,N/A,,Clear,160,2012-11-17 15:54:00
10:14 AM,35.6,28.4,75,30.10,10.0,Calm,Calm,-,N/A,,Clear,0,2012-11-17 16:14:00
10:34 AM,35.6,28.4,75,30.10,10.0,Calm,Calm,-,N/A,,Clear,0,2012-11-17 16:34:00
10:54 AM,35.6,30.2,81,30.10,10.0,Calm,Calm,-,N/A,,Clear,0,2012-11-17 16:54:00
11:13 AM,37.4,30.2,75,30.10,10.0,Calm,Calm,-,N/A,,Clear,0,2012-11-17 17:13:00
11:34 AM,37.4,30.2,75,30.10,10.0,SSW,4.6,-,N/A,,Clear,210,2012-11-17 17:34:00
11:54 AM,37.4,32.0,81,30.09,10.0,SSW,3.5,-,N/A,,Clear,200,2012-11-17 17:54:00
12:13 PM,37.4,32.0,81,30.09,10.0,SSW,4.6,-,N/A,,Clear,200,2012-11-17 18:13:00
12:34 PM,37.4,32.0,81,30.09,10.0,SSW,4.6,-,N/A,,Clear,210,2012-11-17 18:34:00
12:54 PM,37.4,32.0,81,30.08,10.0,Calm,Calm,-,N/A,,Clear,0,2012-11-17 18:54:00
1:13 PM,37.4,32.0,81,30.08,10.0,Calm,Calm,-,N/A,,Clear,0,2012-11-17 19:13:00
1:34 PM,37.4,32.0,81,30.08,10.0,Calm,Calm,-,N/A,,Clear,0,2012-11-17 19:34:00
1:54 PM,39.2,33.8,81,30.08,10.0,Calm,Calm,-,N/A,,Clear,0,2012-11-17 19:54:00
2:13 PM,39.2,33.8,81,30.08,10.0,Calm,Calm,-,N/A,,Clear,0,2012-11-17 20:13:00
2:34 PM,39.2,33.8,81,30.08,10.0,Calm,Calm,-,N/A,,Clear,0,2012-11-17 20:34:00
2:54 PM,39.2,33.8,81,30.08,10.0,Calm,Calm,-,N/A,,Clear,0,2012-11-17 20:54:00
3:13 PM,39.2,33.8,81,30.09,10.0,Calm,Calm,-,N/A,,Clear,0,2012-11-17 21:13:00
3:34 PM,39.2,33.8,81,30.09,10.0,Calm,Calm,-,N/A,,Clear,0,2012-11-17 21:34:00
3:54 PM,35.6,32.0,87,30.09,10.0,Calm,Calm,-,N/A,,Clear,0,2012-11-17 21:54:00
4:14 PM,35.6,30.2,81,30.09,7.0,Calm,Calm,-,N/A,,Scattered Clouds,0,2012-11-17 22:14:00
4:34 PM,33.8,30.2,87,30.09,7.0,Calm,Calm,-,N/A,,Scattered Clouds,0,2012-11-17 22:34:00
4:54 PM,33.8,30.2,87,30.09,10.0,East,3.5,-,N/A,,Scattered Clouds,90,2012-11-17 22:54:00
5:14 PM,33.8,30.2,87,30.09,10.0,Calm,Calm,-,N/A,,Scattered Clouds,0,2012-11-17 23:14:00
5:34 PM,33.8,30.2,87,30.09,10.0,Calm,Calm,-,N/A,,Clear,0,2012-11-17 23:34:00
6:14 PM,33.8,28.4,81,30.09,7.0,Calm,Calm,-,N/A,,Scattered Clouds,0,2012-11-18 00:14:00
6:34 PM,33.8,30.2,87,30.09,10.0,Calm,Calm,-,N/A,,Mostly Cloudy,0,2012-11-18 00:34:00
6:54 PM,33.8,28.4,81,30.09,7.0,Calm,Calm,-,N/A,,Mostly Cloudy,0,2012-11-18 00:54:00
7:14 PM,33.8,30.2,87,30.09,10.0,Calm,Calm,-,N/A,,Mostly Cloudy,0,2012-11-18 01:14:00
7:34 PM,33.8,28.4,81,30.09,7.0,Calm,Calm,-,N/A,,Overcast,0,2012-11-18 01:34:00
7:54 PM,33.8,30.2,87,30.09,10.0,Calm,Calm,-,N/A,,Mostly Cloudy,0,2012-11-18 01:54:00
8:14 PM,33.8,28.4,81,30.09,7.0,Calm,Calm,-,N/A,,Clear,0,2012-11-18 02:14:00
8:34 PM,33.8,28.4,81,30.09,7.0,Calm,Calm,-,N/A,,Scattered Clouds,0,2012-11-18 02:34:00
8:54 PM,33.8,28.4,81,30.08,7.0,Calm,Calm,-,N/A,,Scattered Clouds,0,2012-11-18 02:54:00
9:14 PM,33.8,30.2,87,30.09,7.0,East,3.5,-,N/A,,Clear,100,2012-11-18 03:14:00
9:34 PM,33.8,30.2,87,30.08,10.0,Calm,Calm,-,N/A,,Scattered Clouds,0,2012-11-18 03:34:00
9:54 PM,33.8,28.4,81,30.08,7.0,Calm,Calm,-,N/A,,Clear,0,2012-11-18 03:54:00
10:14 PM,33.8,28.4,81,30.08,7.0,Calm,Calm,-,N/A,,Clear,0,2012-11-18 04:14:00
10:34 PM,33.8,28.4,81,30.07,7.0,Calm,Calm,-,N/A,,Clear,0,2012-11-18 04:34:00
10:54 PM,33.8,28.4,81,30.07,7.0,ENE,3.5,-,N/A,,Clear,70,2012-11-18 04:54:00
11:14 PM,33.8,28.4,81,30.07,7.0,Calm,Calm,-,N/A,,Clear,0,2012-11-18 05:14:00
11:34 PM,33.8,28.4,81,30.07,7.0,NE,3.5,-,N/A,,Clear,50,2012-11-18 05:34:00
11:54 PM,32.0,28.4,87,30.07,5.0,NE,4.6,-,N/A,,Mostly Cloudy,50,2012-11-18 05:54:00